Weather History for Port Angeles, WA

Change the Weather History Date:

Wednesday, August 28, 2013

  Actual Average Record
Temperature  
Mean Temperature 62 °F -  
Max Temperature 71 °F 67 °F 86 °F (1974)
Min Temperature 57 °F 51 °F 42 °F (1985)
Degree Days  
Heating Degree Days 4    
Growing Degree Days 12 (Base 50)    
Moisture  
Dew Point 58 °F    
Average Humidity 89    
Maximum Humidity 97    
Minimum Humidity 73    
Precipitation  
Precipitation 0.07 in - - ()
Sea Level Pressure  
Sea Level Pressure 29.87 in    
Wind  
Wind Speed 2 mph (SE)    
Max Wind Speed 5 mph    
Max Gust Speed -    
Visibility 10 miles    
Events Rain    
Averages and records for this station are not official NWS values.
T = Trace of Precipitation, MM = Missing Value Source: NWS Daily Summary

Daily Weather History Graph

Daily Weather History Graph

Search for Another Location

Airport:

Trip Planner

Search our weather history database for the weather conditions in past years. The results will help you decide how hot, cold, wet, or windy it might be!

Date:

Astronomy

Aug. 28, 2013 Rise Set
Actual Time 6:26 AM PDT 8:02 PM PDT
Civil Twilight 5:54 AM PDT 8:34 PM PDT
Nautical Twilight 5:14 AM PDT 9:14 PM PDT
Astronomical Twilight 4:30 AM PDT 9:57 PM PDT
Moon No Moon Rise 2:58 PM PDT (8/28)
Length of Visible Light 14h 40m
Length of Day
13h 35m
Last Quarter, 46% of the Moon is Illuminated
Aug 28
Last Quarter
Sep 5
New
Sep 12
First Quarter
Sep 19
Full
Sep 26
Last Quarter

Hourly Weather History & Observations

Time (PDT) Temp. Dew Point Humidity Pressure Visibility Wind Dir Wind Speed Gust Speed Precip Events Conditions
12:10 AM 59.0 °F 57.0 °F 93% 29.84 in 10.0 mi SSE 4.6 mph - 0.00 in   Overcast
12:53 AM 59.0 °F 57.0 °F 93% 29.85 in 10.0 mi SE 4.6 mph - 0.01 in Rain Light Rain
1:53 AM 60.1 °F 57.0 °F 90% 29.84 in 10.0 mi ESE 3.5 mph - 0.00 in   Overcast
2:09 AM 59.0 °F 57.0 °F 93% 29.83 in 10.0 mi SE 4.6 mph - N/A   Overcast
2:53 AM 59.0 °F 57.0 °F 93% 29.83 in 10.0 mi Calm Calm - N/A   Overcast
3:33 AM 59.0 °F 57.0 °F 93% 29.83 in 10.0 mi Calm Calm - 0.00 in Rain Light Rain
3:53 AM 57.9 °F 57.0 °F 97% 29.83 in 10.0 mi Calm Calm - 0.00 in   Overcast
4:34 AM 59.0 °F 57.0 °F 93% 29.83 in 10.0 mi West 3.5 mph - 0.00 in Rain Light Rain
4:46 AM 59.0 °F 57.0 °F 93% 29.83 in 10.0 mi Calm Calm - 0.00 in Rain Light Rain
4:53 AM 59.0 °F 57.0 °F 93% 29.83 in 10.0 mi SW 3.5 mph - 0.00 in Rain Light Rain
5:03 AM 59.0 °F 57.0 °F 93% 29.83 in 10.0 mi Calm Calm - 0.00 in   Overcast
5:12 AM 59.0 °F 57.0 °F 93% 29.83 in 10.0 mi Calm Calm - 0.00 in Rain Light Rain
5:53 AM 57.9 °F 57.0 °F 97% 29.84 in 10.0 mi Calm Calm - 0.00 in   Overcast
6:42 AM 59.0 °F 57.0 °F 93% 29.85 in 10.0 mi Calm Calm - 0.00 in   Overcast
6:53 AM 59.0 °F 57.0 °F 93% 29.86 in 8.0 mi Calm Calm - 0.00 in   Overcast
7:38 AM 60.1 °F 57.9 °F 93% 29.86 in 9.0 mi ESE 4.6 mph - N/A   Overcast
7:53 AM 59.0 °F 57.0 °F 93% 29.87 in 10.0 mi ESE 4.6 mph - N/A   Overcast
8:15 AM 60.1 °F 57.9 °F 93% 29.87 in 10.0 mi Variable 3.5 mph - N/A   Overcast
8:25 AM 60.1 °F 57.9 °F 93% 29.87 in 10.0 mi Calm Calm - N/A   Overcast
8:53 AM 60.1 °F 57.0 °F 90% 29.87 in 7.0 mi NE 3.5 mph - N/A   Mostly Cloudy
9:53 AM 61.0 °F 59.0 °F 93% 29.88 in 8.0 mi SSW 3.5 mph - N/A   Overcast
10:27 AM 61.0 °F 59.0 °F 93% 29.89 in 10.0 mi Calm Calm - N/A   Overcast
10:53 AM 63.0 °F 59.0 °F 87% 29.89 in 10.0 mi Calm Calm - N/A   Scattered Clouds
11:53 AM 64.0 °F 59.0 °F 84% 29.89 in 10.0 mi Variable 3.5 mph - N/A   Clear
12:53 PM 61.0 °F 57.0 °F 87% 29.90 in 10.0 mi Variable 3.5 mph - N/A   Partly Cloudy
1:53 PM 66.9 °F 59.0 °F 76% 29.90 in 10.0 mi Variable 3.5 mph - N/A   Clear
2:53 PM 64.0 °F 57.0 °F 78% 29.90 in 10.0 mi NNE 4.6 mph - N/A   Clear
3:53 PM 66.9 °F 57.9 °F 73% 29.89 in 10.0 mi North 3.5 mph - N/A   Clear
4:53 PM 66.9 °F 57.9 °F 73% 29.90 in 10.0 mi NNE 3.5 mph - N/A   Clear
5:53 PM 66.9 °F 57.9 °F 73% 29.89 in 10.0 mi Calm Calm - N/A   Partly Cloudy
6:53 PM 66.9 °F 59.0 °F 76% 29.88 in 10.0 mi Calm Calm - N/A   Clear
7:53 PM 63.0 °F 57.0 °F 81% 29.88 in 10.0 mi Calm Calm - N/A   Clear
8:53 PM 63.0 °F 59.0 °F 87% 29.89 in 10.0 mi Calm Calm - N/A   Overcast
9:53 PM 60.1 °F 57.9 °F 93% 29.91 in 10.0 mi Calm Calm - 0.01 in Rain Light Rain
10:53 PM 60.1 °F 57.9 °F 93% 29.89 in 10.0 mi Calm Calm - 0.05 in Rain Light Rain
11:06 PM 60.1 °F 57.9 °F 93% 29.90 in 10.0 mi Calm Calm - 0.00 in Rain Light Rain
11:17 PM 61.0 °F 59.0 °F 93% 29.89 in 10.0 mi Calm Calm - 0.00 in   Overcast
11:53 PM 61.0 °F 60.1 °F 97% 29.90 in 10.0 mi WSW 3.5 mph - 0.00 in   Overcast